Theta_e
291 289 288 288 286 285 284 284 284 286 286 284 286 286 289 292 292 291 291 291 292 293 296 297 298 299 300 302 304 304 302 303 305 307 308 309 309 312 313 315 316 317 318 319
288 287 286 287 287 285 284 283 285 286 285 284 286 284 289 290 289 289 290 291 292 293 295 296 297 299 300 300 302 304 305 305 304 305 306 306 304 305 306 308 310 313 313 315
285 285 287 286 285 283 284 283 282 282 285 285 283 288 290 288 288 290 291 292 292 294 294 295 296 297 299 298 300 303 303 302 302 303 303 302 303 304 304 305 307 309 308 312
285 286 285 285 284 285 282 284 283 282 282 283 283 285 289 287 288 289 291 292 293 294 294 295 295 295 296 296 298 299 300 300 300 301 300 298 298 297 300 302 304 305 306 306
285 284 284 283 284 285 282 285 283 282 280 277 280 280 289 285 288 289 291 292 294 295 294 293 294 295 296 296 297 298 298 298 298 299 298 298 297 299 300 301 302 303 304 305
284 287 286 286 285 285 286 283 281 281 280 278 276 279 287 290 289 288 289 291 293 293 293 293 295 295 295 296 296 297 296 296 297 298 298 297 297 297 298 298 299 300 302 303
283 284 286 287 283 286 284 281 285 283 281 283 277 277 286 290 288 288 289 290 292 292 292 293 294 294 294 294 294 295 295 295 297 296 296 296 296 296 296 297 298 298 299 301
283 283 284 286 284 282 282 281 282 277 279 281 275 278 287 288 288 289 290 290 291 291 292 292 294 294 293 292 293 294 295 295 295 295 295 296 296 296 297 297 297 297 298 299
281 280 285 285 285 284 281 279 280 276 267 274 282 282 286 288 286 287 288 289 290 291 291 293 293 292 291 292 293 294 294 294 295 295 295 295 295 294 293 294 294 294 297 298
282 281 281 284 285 285 282 284 279 280 276 276 281 279 284 288 287 287 287 289 289 289 291 292 291 291 292 292 294 295 295 293 293 293 292 292 292 293 294 294 294 294 294 295
283 281 279 282 281 282 280 280 279 279 278 277 276 285 288 288 290 289 288 288 289 290 291 290 290 290 291 294 296 295 293 292 291 291 291 291 290 290 291 291 292 293 293 294
284 281 278 280 281 282 282 281 281 280 277 276 274 279 288 288 288 287 288 289 290 290 290 289 289 290 293 294 294 292 291 290 290 290 289 289 290 290 289 289 290 292 291 292
284 281 278 280 278 280 279 281 281 278 278 276 276 282 285 285 285 287 287 289 289 289 289 288 288 291 293 293 292 290 289 288 288 289 289 288 288 289 288 288 289 290 291 291
289 282 281 280 282 279 277 278 280 280 277 278 277 280 286 289 290 292 292 290 289 288 287 287 288 291 292 291 290 288 288 288 288 288 288 287 288 288 289 289 289 290 290 290
286 278 279 281 281 279 278 279 280 278 280 277 280 282 286 289 290 290 290 289 286 286 285 285 287 291 290 289 288 288 288 287 287 286 287 287 289 288 288 288 289 289 290 290
283 279 274 274 277 278 276 279 280 279 280 280 280 280 287 289 290 288 287 287 285 285 285 285 289 288 287 287 287 286 286 286 286 287 287 287 287 287 287 288 288 289 289 289
280 278 275 277 271 270 273 274 278 280 282 281 277 282 287 287 288 287 285 285 285 285 284 286 287 286 287 287 287 285 285 286 285 286 286 286 286 286 286 287 288 288 289 288
280 279 278 276 271 272 282 281 282 280 281 283 283 284 286 287 289 286 286 285 285 284 284 287 287 287 287 287 287 286 285 285 284 285 285 286 285 285 286 285 286 287 287 287
286 280 276 275 274 277 282 285 279 277 280 283 282 283 285 286 284 285 284 285 286 284 284 287 287 287 287 286 287 286 284 284 284 284 284 285 285 285 285 285 285 286 287 286
282 283 279 270 271 271 282 280 280 279 277 284 280 281 281 281 279 285 284 284 286 284 284 285 287 288 287 287 286 285 284 283 284 284 285 285 285 285 285 285 285 285 286 286
276 277 275 276 273 276 282 281 280 276 281 283 282 282 281 281 284 284 284 285 286 283 283 286 287 286 286 286 285 285 284 283 284 285 285 285 285 285 285 285 285 285 285 286
274 273 273 276 272 270 284 279 278 286 284 284 283 284 284 283 284 284 285 286 286 283 284 286 286 285 286 286 284 284 284 284 285 285 285 285 285 285 286 286 286 286 286 285
275 280 278 278 278 284 282 285 286 285 283 284 284 286 286 285 285 287 285 286 285 285 284 286 286 284 285 285 284 283 284 285 285 285 285 285 285 285 285 285 285 285 285 285
277 281 278 279 283 283 284 284 285 286 285 287 286 286 286 285 285 284 285 284 283 283 285 286 287 285 284 283 283 283 283 285 285 284 285 285 285 285 285 286 286 286 285 284
283 280 279 279 283 286 286 286 288 288 289 288 287 285 286 286 284 283 283 283 284 283 284 286 286 286 285 284 282 283 282 284 285 285 285 285 285 285 285 284 285 285 285 285
283 281 278 278 285 285 286 290 290 288 288 288 286 285 285 284 284 283 282 283 282 282 283 284 285 286 286 285 281 281 280 282 285 285 285 285 286 286 285 285 284 287 287 287
Wind_Speed
3 4 4 3 3 3 1 2 8 5 1 7 7 19 27 21 16 18 15 10 8 6 1 3 2 3 5 6 7 7 7 7 6 6 6 6 7 5 5 6 10 11 10 11
4 4 2 6 3 1 2 5 6 7 1 6 9 25 26 9 3 4 4 4 5 3 3 1 1 4 6 7 9 11 10 8 7 6 5 5 6 8 8 8 10 11 12 12
4 3 4 1 2 3 5 6 3 5 9 5 13 12 6 3 4 3 4 3 3 5 4 3 2 3 7 12 13 11 11 10 10 10 8 9 9 9 9 10 10 12 15 13
1 3 3 3 3 4 5 1 2 6 8 5 6 7 11 1 7 7 7 8 8 8 7 5 1 2 8 13 13 13 13 14 14 15 13 15 13 15 12 13 12 11 14 14
3 4 4 4 1 4 2 2 3 3 1 4 3 3 8 2 2 2 8 11 10 9 6 4 5 7 8 12 11 13 14 15 16 15 15 13 16 13 12 12 16 16 14 15
0 0 3 0 2 2 3 3 2 2 2 4 2 2 7 4 3 2 2 7 10 8 6 6 7 9 11 13 13 14 15 16 17 17 18 20 20 18 15 15 13 12 11 11
3 3 2 2 3 3 3 3 3 3 2 3 2 5 13 6 6 4 4 5 8 6 6 7 9 9 14 16 16 15 16 18 18 19 19 20 21 21 21 18 14 16 12 11
4 4 6 5 3 1 4 2 2 6 4 5 1 9 6 2 2 6 8 9 12 12 6 8 10 15 15 16 17 17 18 19 18 19 20 18 20 13 14 17 15 13 13 13
3 2 1 1 0 2 6 4 3 3 2 3 4 7 16 5 10 12 13 11 9 6 7 10 16 15 16 16 18 19 18 18 17 18 16 16 16 18 15 18 16 14 15 14
1 4 1 2 2 3 3 6 2 1 5 7 6 7 11 5 7 5 3 5 6 6 9 13 14 14 15 16 17 17 17 17 16 18 16 14 15 17 18 16 18 18 16 16
3 2 3 2 8 7 5 4 3 2 3 5 7 6 7 8 4 5 2 5 8 8 13 14 13 14 15 15 16 17 17 17 16 16 17 16 15 16 16 15 17 18 17 16
2 0 4 5 2 3 2 2 7 5 5 4 4 15 4 6 4 3 6 9 10 11 14 13 13 14 15 17 17 17 16 19 16 16 16 17 17 17 17 16 17 18 17 16
6 2 4 4 3 1 4 4 4 2 1 9 8 12 4 4 4 6 9 10 12 14 14 13 13 14 16 18 17 15 16 16 18 18 16 17 17 17 16 17 17 17 17 17
5 5 8 9 6 3 6 5 8 9 5 10 19 28 28 27 22 16 8 8 10 12 13 11 12 15 17 15 15 15 17 16 17 18 17 17 17 17 16 16 16 16 16 16
4 7 6 13 13 12 17 18 18 18 21 16 30 30 36 32 24 24 19 13 10 11 13 12 13 15 15 14 14 15 16 16 16 18 17 18 17 15 15 15 16 16 15 14
7 3 2 5 8 15 21 19 20 24 24 27 33 43 30 31 23 13 5 8 8 11 9 8 12 16 14 14 14 17 16 16 16 15 15 16 14 14 14 14 15 15 14 13
8 5 5 10 2 5 12 16 24 13 13 20 24 37 28 26 17 12 7 10 12 10 6 7 13 12 13 14 14 14 15 15 16 14 15 13 13 13 13 13 11 7 6 8
8 6 5 6 2 10 3 3 7 14 12 18 26 28 29 24 21 13 11 12 10 5 4 6 9 11 13 13 13 13 13 13 12 12 13 12 12 13 12 10 9 4 2 4
12 6 5 6 6 11 19 10 6 8 5 17 16 23 21 14 9 11 1 6 3 4 5 4 7 9 12 12 12 12 12 11 11 12 12 12 11 12 10 10 9 6 4 4
4 7 7 5 5 8 5 2 3 5 10 3 7 8 8 2 4 7 2 4 4 5 5 4 8 8 10 11 11 11 11 11 11 11 11 11 10 9 9 9 9 7 6 6
6 4 14 10 9 10 11 7 5 5 6 2 2 0 0 3 6 7 6 10 4 4 5 4 7 6 10 10 11 10 10 11 11 9 8 9 9 8 8 7 7 7 8 9
12 11 8 8 8 16 12 9 10 4 1 2 2 3 6 9 11 12 12 11 7 5 5 6 6 5 8 8 9 10 9 9 9 8 8 8 7 7 7 9 9 9 9 10
9 13 8 14 11 6 12 3 10 5 4 5 5 11 9 13 14 15 14 9 8 5 5 4 6 5 6 7 7 10 10 10 9 8 7 8 8 9 9 10 9 8 9 8
9 5 10 8 20 19 11 12 12 13 15 17 9 14 15 17 15 15 13 11 8 6 8 6 6 4 6 8 7 7 9 9 8 7 7 8 8 9 10 8 7 8 8 8
10 14 11 10 20 12 15 15 17 17 16 15 13 14 17 14 16 12 13 12 11 7 7 6 7 4 5 7 6 6 8 9 7 5 5 6 8 9 10 11 8 8 9 8
16 16 12 16 11 12 14 13 8 9 13 13 12 12 12 10 14 8 11 10 9 9 6 6 8 5 4 4 6 3 5 7 5 5 5 6 6 7 7 8 11 22 20 21
Wind_Direction
46 250 247 349 352 9 9 275 277 273 349 294 253 275 279 295 282 270 273 259 238 231 202 266 275 330 306 302 312 299 284 265 248 246 251 247 251 244 244 249 246 239 236 241
209 238 76 111 95 359 296 301 279 283 295 307 310 291 282 302 255 265 304 200 187 191 216 201 357 359 4 322 308 290 279 271 260 260 260 274 278 270 267 266 259 252 250 241
254 76 142 180 170 249 240 248 290 288 321 257 306 272 272 193 266 234 211 224 214 225 218 206 301 21 8 344 323 305 283 280 276 268 280 281 271 266 263 256 252 247 246 242
259 112 189 201 238 203 281 50 302 309 337 297 6 287 289 292 277 228 207 209 218 223 228 234 288 304 3 338 317 301 289 280 276 275 273 269 267 268 264 266 257 252 249 250
97 174 195 227 256 182 353 1 312 307 245 317 105 227 274 310 236 221 206 212 220 225 230 257 279 279 300 316 302 297 291 284 280 277 275 271 266 266 266 262 259 251 250 247
151 131 228 7 114 167 116 268 249 138 170 241 96 273 272 227 160 170 194 215 225 210 222 265 279 282 281 304 292 292 292 288 286 282 278 275 272 270 266 260 257 252 249 243
176 192 149 213 188 158 201 276 292 266 230 299 102 262 255 255 210 226 205 196 193 206 252 274 280 288 304 300 301 296 291 288 287 287 284 280 276 274 271 270 262 259 252 244
251 238 191 167 251 160 171 203 249 278 288 321 161 241 247 252 292 246 245 257 264 261 257 277 295 308 302 299 297 297 296 295 297 296 292 286 280 277 276 271 265 266 263 255
193 219 126 317 97 280 139 201 82 106 98 267 237 262 274 270 244 241 252 241 247 250 274 294 314 310 302 299 302 306 304 303 303 299 295 286 278 275 267 269 268 269 266 256
152 266 161 130 177 78 272 133 161 172 275 272 230 260 251 249 223 191 200 212 233 239 285 311 313 303 302 305 309 304 307 306 302 298 293 287 284 285 280 275 268 260 257 259
158 238 112 177 208 185 157 202 193 307 234 270 302 249 214 235 198 197 237 266 259 256 311 312 308 306 309 308 313 314 315 311 304 300 299 291 285 280 274 271 272 268 263 258
77 38 250 229 76 353 302 255 193 231 199 249 302 271 188 247 256 265 279 279 272 286 305 314 310 315 317 319 321 323 318 314 307 305 300 293 286 279 273 267 264 260 256 249
163 104 299 208 149 80 243 215 214 110 273 219 260 260 116 150 226 246 256 265 282 294 308 317 319 322 322 326 326 324 315 308 308 304 299 294 291 284 276 269 263 256 252 245
122 178 202 255 302 147 234 216 226 225 251 282 240 288 269 287 289 297 291 257 286 304 311 316 327 326 326 325 326 319 312 311 310 308 298 294 290 288 281 274 266 254 245 241
148 224 227 252 266 252 257 254 245 233 239 247 274 278 279 279 299 306 309 317 311 303 313 331 331 319 326 326 324 316 314 314 311 309 307 305 300 292 285 277 267 255 242 234
185 219 120 267 257 248 261 258 247 243 248 253 260 264 269 290 293 294 291 290 296 299 300 328 319 324 327 325 321 321 317 316 314 311 309 305 302 301 297 292 283 264 236 221
175 167 161 269 20 306 267 225 224 215 226 235 250 257 283 288 290 303 294 287 296 289 309 327 323 322 322 318 322 318 316 314 318 314 311 312 314 311 313 306 300 314 211 190
176 180 172 280 238 248 273 303 228 224 243 241 251 266 272 276 291 305 270 274 283 279 303 314 314 323 320 314 321 319 320 317 319 316 315 326 324 323 319 320 335 3 77 174
202 175 202 241 231 311 297 266 179 194 277 255 271 274 291 304 297 289 284 217 247 259 260 267 295 310 312 314 320 316 319 322 325 327 332 333 329 327 333 345 349 4 45 54
183 206 202 152 230 255 283 91 135 157 295 187 272 323 0 27 307 340 255 210 285 254 250 280 294 323 310 321 320 319 323 328 338 338 334 336 333 337 348 360 358 3 34 45
173 182 217 218 238 263 253 176 170 252 290 228 198 308 132 233 251 315 289 287 256 243 254 270 296 318 308 321 323 323 330 331 330 326 335 356 344 345 358 15 26 31 38 47
168 175 198 212 222 259 178 128 209 237 188 281 285 252 282 248 271 270 272 279 291 242 236 251 287 306 312 326 333 323 332 328 329 326 352 349 355 7 25 32 34 40 55 57
223 215 205 201 217 246 194 231 226 302 288 278 256 277 286 289 277 287 279 257 272 239 232 232 260 298 316 323 350 329 330 333 335 350 8 8 6 27 38 47 47 47 47 56
237 221 227 203 241 242 237 247 264 263 249 265 257 273 281 276 286 280 279 264 257 220 223 220 241 271 311 321 339 332 330 328 334 14 14 23 25 34 39 45 43 53 48 53
217 165 217 247 256 279 265 249 246 261 261 264 262 251 256 267 269 269 278 275 265 234 206 205 225 223 269 307 317 340 343 333 347 349 22 40 45 48 57 47 43 52 43 53
215 227 219 241 249 238 256 265 256 239 261 265 254 268 249 233 257 266 267 266 253 246 196 206 220 206 225 277 295 330 345 342 341 6 24 40 50 45 50 63 67 55 60 62